Torna al catalogo

FENGYUN 1C DEB

AttivoSSO
NORAD 29913·DEBRIS·🇨🇳 China

Lanciato May 10, 1999 da Taiyuan Satellite Launch Center

Loading…

Prossimi Passaggi (prossime 24 ore)

TLE

AggiornatoSource: Space-Track

Epoca: Sep 14, 2026, 10:28 UTC

1 29913U 99025HK  26257.43620515  .00000253  00000-0  17238-3 0  9991
2 29913  98.8002 253.9936 0061872 214.3146 304.8113 14.07643336  8336

Traccia FENGYUN 1C DEB in tempo reale con AllMySat

Download on the App Store